Change the Weather History Date:

Wednesday, April 10, 2013

  Actual Average Record
Temperature  
Mean Temperature 34 °F -  
Max Temperature 45 °F 71 °F 93 °F (1948)
Min Temperature 23 °F 42 °F 20 °F (1952)
Degree Days  
Heating Degree Days 31    
Moisture  
Dew Point 19 °F    
Average Humidity 66    
Maximum Humidity 81    
Minimum Humidity 37    
Precipitation  
Precipitation 0.00 in - - ()
Sea Level Pressure  
Sea Level Pressure 30.06 in    
Wind  
Wind Speed 20 mph (NNW)    
Max Wind Speed 25 mph    
Max Gust Speed 37 mph    
Visibility 10 miles    
Events Rain , Snow    
Averages and records for this station are not official NWS values.
T = Trace of Precipitation, MM = Missing Value Source: NWS Daily Summary

Daily Weather History Graph

Daily Weather History Graph

Search for Another Location

Airport or City:

Trip Planner

Search our weather history database for the weather conditions in past years. The results will help you decide how hot, cold, wet, or windy it might be!

Date:

Astronomy

Apr. 10, 2013 Rise Set
Actual Time 7:12 AM CDT 8:09 PM CDT
Civil Twilight 6:45 AM CDT 8:35 PM CDT
Nautical Twilight 6:14 AM CDT 9:06 PM CDT
Astronomical Twilight 5:42 AM CDT 9:38 PM CDT
Moon 7:10 AM CDT (4/10) 8:44 PM CDT (4/10)
Length of Visible Light 13h 49m
Length of Day
12h 56m
New Moon, 0% of the Moon is Illuminated
Apr 10
New Moon
Apr 18
First Quarter
Apr 25
Full
May 2
Last Quarter
May 9
New

Hourly Weather History & Observations

Time (CDT) Temp. Windchill Dew Point Humidity Pressure Visibility Wind Dir Wind Speed Gust Speed Precip Events Conditions
12:53 AM 25.0 °F 10.9 °F 19.9 °F 81% 30.01 in 10.0 mi North 19.6 mph 32.2 mph 0.00 in   Overcast
1:53 AM 25.0 °F 9.9 °F 19.9 °F 81% 30.09 in 10.0 mi NNW 23.0 mph 36.8 mph N/A   Overcast
2:53 AM 24.1 °F 9.8 °F 19.0 °F 81% 30.12 in 10.0 mi NNW 19.6 mph 28.8 mph N/A   Overcast
3:40 AM 24.8 °F 9.6 °F 17.6 °F 74% 30.04 in 10.0 mi NNW 23.0 mph 29.9 mph 0.00 in Rain Light Freezing Rain
3:53 AM 24.1 °F 8.7 °F 17.1 °F 75% 30.09 in 10.0 mi NNW 23.0 mph 31.1 mph 0.00 in Rain Light Freezing Rain
4:53 AM 24.1 °F 8.7 °F 17.1 °F 75% 30.09 in 10.0 mi NNW 23.0 mph 35.7 mph 0.00 in Rain Light Freezing Rain
5:14 AM 24.8 °F 9.0 °F 17.6 °F 74% 30.02 in 10.0 mi NNW 25.3 mph 31.1 mph 0.00 in   Overcast
5:53 AM 23.0 °F 10.1 °F 18.0 °F 81% 30.14 in 8.0 mi NNW 15.0 mph 25.3 mph 0.00 in Snow Light Snow
6:53 AM 24.1 °F 9.0 °F 17.1 °F 75% 30.10 in 10.0 mi NW 21.9 mph 27.6 mph 0.00 in   Mostly Cloudy
7:10 AM 24.8 °F 11.5 °F 17.6 °F 74% 30.07 in 10.0 mi NW 17.3 mph 26.5 mph N/A   Overcast
7:20 AM 24.8 °F 10.7 °F 17.6 °F 74% 30.05 in 10.0 mi NW 19.6 mph 29.9 mph N/A   Overcast
7:53 AM 24.1 °F 9.4 °F 17.1 °F 75% 30.13 in 10.0 mi NNW 20.7 mph 25.3 mph N/A   Scattered Clouds
8:26 AM 24.8 °F 11.1 °F 17.6 °F 74% 30.07 in 10.0 mi NNW 18.4 mph 25.3 mph N/A   Mostly Cloudy
8:39 AM 24.8 °F 11.1 °F 17.6 °F 74% 30.06 in 10.0 mi NNW 18.4 mph 26.5 mph N/A   Scattered Clouds
8:53 AM 26.1 °F 11.6 °F 18.0 °F 71% 30.12 in 10.0 mi NNW 21.9 mph 27.6 mph N/A   Scattered Clouds
9:53 AM 26.1 °F 11.3 °F 17.1 °F 69% 30.14 in 10.0 mi NNW 23.0 mph 29.9 mph N/A   Mostly Cloudy
10:20 AM 26.6 °F 12.4 °F 17.6 °F 69% 30.07 in 10.0 mi NNW 21.9 mph 31.1 mph N/A   Mostly Cloudy
10:34 AM 28.4 °F 14.7 °F 17.6 °F 64% 30.07 in 10.0 mi NNW 21.9 mph 29.9 mph N/A   Scattered Clouds
10:53 AM 28.0 °F 14.3 °F 19.0 °F 69% 30.15 in 10.0 mi NW 21.9 mph 27.6 mph N/A   Partly Cloudy
11:53 AM 28.9 °F 15.8 °F 18.0 °F 64% 30.13 in 10.0 mi NNW 20.7 mph 28.8 mph N/A   Mostly Cloudy
12:53 PM 32.0 °F 20.1 °F 19.9 °F 61% 30.11 in 10.0 mi North 19.6 mph - N/A   Overcast
1:53 PM 36.0 °F 26.3 °F 21.0 °F 55% 30.06 in 10.0 mi NNW 16.1 mph - N/A   Mostly Cloudy
2:53 PM 39.0 °F 29.6 °F 24.1 °F 55% 30.05 in 10.0 mi NNW 18.4 mph - N/A   Scattered Clouds
3:53 PM 41.0 °F 33.1 °F 21.0 °F 45% 30.00 in 10.0 mi NNW 15.0 mph 28.8 mph N/A   Clear
4:53 PM 44.1 °F 35.9 °F 21.0 °F 40% 29.96 in 10.0 mi NNW 19.6 mph - N/A   Clear
5:53 PM 45.0 °F 37.1 °F 19.9 °F 37% 29.95 in 10.0 mi NNW 19.6 mph 28.8 mph N/A   Clear
6:53 PM 43.0 °F 35.7 °F 18.0 °F 37% 29.96 in 10.0 mi North 15.0 mph 23.0 mph N/A   Clear
7:53 PM 39.9 °F 31.8 °F 19.9 °F 45% 29.99 in 10.0 mi North 15.0 mph - N/A   Clear
8:53 PM 35.1 °F 27.4 °F 23.0 °F 61% 30.01 in 10.0 mi North 10.4 mph - N/A   Clear
9:53 PM 33.1 °F 24.9 °F 21.0 °F 61% 30.05 in 10.0 mi North 10.4 mph - N/A   Clear
10:53 PM 30.0 °F 24.1 °F 21.0 °F 69% 30.08 in 10.0 mi NNW 5.8 mph - N/A   Clear
11:53 PM 28.9 °F 22.8 °F 21.0 °F 72% 30.08 in 10.0 mi NW 5.8 mph - N/A   Clear